M3YFM-13 Weather Reports


time (UTC)temp
F
wind
direction
speed
knots
gust
knots
rain 1hr
in
rain 24hr
in
rain mn
in
humidity
%
barometer
mb
20260507140132 63 226 1.7 5.2 0.00 0.00 0.00 35
20260507135633 63 255 1.7 7.0 0.00 0.00 0.00 35
20260507134631 64 198 0.9 4.3 0.00 0.00 0.00 33
20260507133631 63 190 1.7 6.1 0.00 0.00 0.00 35
20260507133131 63 212 0.9 3.5 0.00 0.00 0.00 35
20260507132630 63 201 0.9 5.2 0.00 0.00 0.00 35
20260507132130 61 205 0.9 4.3 0.00 0.00 0.00 36
20260507131630 62 266 2.6 5.2 0.00 0.00 0.00 36
20260507131129 61 198 1.7 4.3 0.00 0.00 0.00 36
20260507130629 62 253 2.6 6.1 0.00 0.00 0.00 37
20260507130129 62 248 0.9 4.3 0.00 0.00 0.00 37
20260507125629 62 287 0.0 2.6 0.00 0.00 0.00 36
20260507125129 62 233 1.7 3.5 0.00 0.00 0.00 35
20260507124628 63 243 0.0 2.6 0.00 0.00 0.00 34
20260507124128 63 262 0.9 4.3 0.00 0.00 0.00 35
20260507123627 63 226 1.7 6.1 0.00 0.00 0.00 33
20260507123127 65 270 1.7 5.2 0.00 0.00 0.00 31
20260507122627 65 245 0.9 6.1 0.00 0.00 0.00 31
20260507122127 65 278 1.7 5.2 0.00 0.00 0.00 32
20260507121626 65 207 3.5 7.0 0.00 0.00 0.00 35
20260507121126 65 215 2.6 7.8 0.00 0.00 0.00 35
20260507120626 65 224 1.7 5.2 0.00 0.00 0.00 31
20260507120125 64 277 1.7 4.3 0.00 0.00 0.00 34
20260507115625 64 248 0.9 3.5 0.00 0.00 0.00 37
20260507115125 64 215 1.7 5.2 0.00 0.00 0.00 37
20260507114625 64 215 1.7 6.1 0.00 0.00 0.00 35
20260507114124 65 245 0.9 3.5 0.00 0.00 0.00 36
20260507113624 63 266 1.7 5.2 0.00 0.00 0.00 38
20260507113124 63 260 1.7 5.2 0.00 0.00 0.00 37
20260507112624 62 263 1.7 4.3 0.00 0.00 0.00 41
20260507112123 61 25 0.0 1.7 0.00 0.00 0.00 43
20260507111623 61 280 0.9 3.5 0.00 0.00 0.00 45
20260507110622 60 214 0.9 3.5 0.00 0.00 0.00 48
20260507110122 60 0 0.0 0.0 0.00 0.00 0.00 51
20260507105621 60 325 0.9 4.3 0.00 0.00 0.00 50
20260507105121 60 238 0.9 3.5 0.00 0.00 0.00 51
20260507104120 58 300 1.7 3.5 0.00 0.00 0.00 56
20260507103620 59 18 0.0 0.9 0.00 0.00 0.00 60
20260507103120 58 349 0.0 1.7 0.00 0.00 0.00 61
20260507102620 57 158 0.9 2.6 0.00 0.00 0.00 62
20260507102119 57 108 0.9 3.5 0.00 0.00 0.00 63
20260507101619 55 110 0.0 3.5 0.00 0.00 0.00 66
20260507101119 54 158 1.7 4.3 0.00 0.00 0.00 67
20260507100618 55 139 0.9 4.3 0.00 0.00 0.00 67
20260507100118 55 156 1.7 4.3 0.00 0.00 0.00 68
20260507095617 55 173 0.9 2.6 0.00 0.00 0.00 69
20260507094615 54 89 0.0 1.7 0.00 0.00 0.00 73
20260507094114 53 0 0.0 0.0 0.00 0.00 0.00 74
20260507093614 53 0 0.0 0.0 0.00 0.00 0.00 74
20260507093114 53 0 0.0 0.0 0.00 0.00 0.00 75
20260507092614 53 0 0.0 0.0 0.00 0.00 0.00 77
20260507092113 52 145 0.0 0.0 0.00 0.00 0.00 78
20260507091613 52 0 0.0 0.0 0.00 0.00 0.00 79
20260507091113 51 97 0.0 2.6 0.00 0.00 0.00 80
20260507090612 51 79 0.0 1.7 0.00 0.00 0.00 81
20260507090112 49 0 0.0 0.0 0.00 0.00 0.00 82
20260507085612 50 0 0.0 0.0 0.00 0.00 0.00 82
20260507085112 50 0 0.0 0.0 0.00 0.00 0.00 83
20260507084611 50 0 0.0 0.0 0.00 0.00 0.00 83
20260507084111 50 0 0.0 0.0 0.00 0.00 0.00 84
20260507083611 48 0 0.0 0.0 0.00 0.00 0.00 84
20260507083110 48 167 0.0 2.6 0.00 0.00 0.00 85
20260507082610 48 150 1.7 4.3 0.00 0.00 0.00 85
20260507081610 48 148 0.9 3.5 0.00 0.00 0.00 86
20260507081110 48 114 0.9 2.6 0.00 0.00 0.00 86
20260507080609 47 160 1.7 4.3 0.00 0.00 0.00 86
20260507080109 47 0 0.0 0.0 0.00 0.00 0.00 87
20260507075609 47 181 0.9 3.5 0.00 0.00 0.00 88
20260507075108 46 136 0.9 3.5 0.00 0.00 0.00 88
20260507074608 46 150 1.7 3.5 0.00 0.00 0.00 88
20260507074108 46 0 0.0 0.0 0.00 0.00 0.00 89
20260507073607 45 0 0.0 0.0 0.00 0.00 0.00 90
20260507073107 45 166 0.9 2.6 0.00 0.00 0.00 90
20260507072607 46 145 0.9 3.5 0.00 0.00 0.00 90
20260507072107 46 152 0.9 3.5 0.00 0.00 0.00 90
20260507071606 45 0 0.0 0.0 0.00 0.00 0.00 91
20260507071106 45 0 0.0 0.0 0.00 0.00 0.00 91
20260507070605 45 103 0.0 0.9 0.00 0.00 0.00 92
20260507070105 45 0 0.0 0.0 0.00 0.00 0.00 92
20260507065605 45 114 0.0 0.9 0.00 0.00 0.00 92
20260507065105 44 0 0.0 0.0 0.00 0.00 0.00 93
20260507064604 43 0 0.0 0.0 0.00 0.00 0.00 93
20260507064104 44 0 0.0 0.0 0.00 0.00 0.00 93
20260507063604 43 113 0.0 0.0 0.00 0.00 0.00 93
20260507063104 43 0 0.0 0.0 0.00 0.00 0.00 93
20260507062603 43 0 0.0 0.0 0.00 0.00 0.00 94
20260507062103 44 113 0.0 1.7 0.00 0.00 0.00 94
20260507061603 43 0 0.0 0.0 0.00 0.00 0.00 94
20260507061102 43 0 0.0 0.0 0.00 0.00 0.00 94
20260507060602 43 128 0.0 3.5 0.00 0.00 0.00 94
20260507055601 42 0 0.0 0.0 0.00 0.00 0.00 94
20260507055101 42 0 0.0 0.0 0.00 0.00 0.00 94
20260507054601 42 0 0.0 0.0 0.00 0.00 0.00 94
20260507054101 42 156 0.9 3.5 0.00 0.00 0.00 94
20260507053600 42 127 0.0 0.9 0.00 0.00 0.00 94
20260507053100 42 149 0.0 2.6 0.00 0.00 0.00 94
20260507052600 42 155 0.9 5.2 0.00 0.00 0.00 94
20260507052100 42 155 1.7 4.3 0.00 0.00 0.00 94
20260507051559 42 177 0.0 2.6 0.00 0.00 0.00 94
20260507051058 42 0 0.0 0.0 0.00 0.00 0.00 93
20260507050558 41 125 0.9 4.3 0.00 0.00 0.00 93
20260507050058 42 143 0.0 4.3 0.00 0.00 0.00 93
20260507045558 42 138 0.0 3.5 0.00 0.00 0.00 93
20260507045057 41 179 0.9 3.5 0.00 0.00 0.00 93
20260507044557 42 138 0.9 4.3 0.00 0.00 0.00 93
20260507044057 42 141 0.9 2.6 0.00 0.00 0.00 92
20260507043556 42 139 0.9 3.5 0.00 0.00 0.00 92
20260507043056 43 132 0.9 5.2 0.00 0.00 0.00 92
20260507042556 42 150 1.7 5.2 0.00 0.00 0.00 92
20260507042056 42 176 0.0 2.6 0.00 0.00 0.00 92
20260507041555 42 0 0.0 0.0 0.00 0.00 0.00 92
20260507041055 43 131 0.0 0.0 0.00 0.00 0.00 92
20260507040054 43 163 0.0 2.6 0.00 0.00 0.00 92
20260507035054 42 129 0.0 2.6 0.00 0.00 0.00 91
20260507034554 42 156 0.0 3.5 0.00 0.00 0.00 91
20260507034053 42 0 0.0 0.0 0.00 0.00 0.00 91
20260507033553 42 0 0.0 0.0 0.00 0.00 0.00 91
20260507033053 42 0 0.0 0.0 0.00 0.00 0.00 91
20260507032553 42 170 0.0 3.5 0.00 0.00 0.00 91
20260507032052 43 146 0.0 3.5 0.00 0.00 0.00 91
20260507031050 43 141 1.7 5.2 0.00 0.00 0.00 90
20260507030549 43 143 1.7 4.3 0.00 0.00 0.00 90
20260507025049 43 142 0.9 3.5 0.00 0.00 0.00 90
20260507024548 43 152 0.0 3.5 0.00 0.00 0.00 90
20260507024048 43 145 0.0 3.5 0.00 0.00 0.00 90
20260507023548 43 118 0.0 3.5 0.00 0.00 0.00 90
20260507023047 43 152 1.7 4.3 0.00 0.00 0.00 90
20260507022547 43 148 2.6 5.2 0.00 0.00 0.00 90
20260507022047 44 160 2.6 5.2 0.00 0.00 0.00 90
20260507021547 43 142 3.5 6.1 0.00 0.00 0.00 90
20260507021046 44 165 2.6 5.2 0.00 0.00 0.00 89
20260507020546 43 139 0.9 4.3 0.00 0.00 0.00 88
20260507020046 44 141 1.7 4.3 0.00 0.00 0.00 88
20260507015546 43 148 0.9 5.2 0.00 0.00 0.00 88
20260507015045 43 152 0.9 3.5 0.00 0.00 0.00 87
20260507014545 43 141 0.0 3.5 0.00 0.00 0.00 87
20260507014045 44 96 0.9 2.6 0.00 0.00 0.00 87
20260507013544 44 0 0.0 0.0 0.00 0.00 0.00 86
20260507013044 44 129 0.0 3.5 0.00 0.00 0.00 86
20260507012544 44 146 0.9 3.5 0.00 0.00 0.00 86
20260507012044 44 156 0.9 5.2 0.00 0.00 0.00 86
20260507011543 45 0 0.0 0.0 0.00 0.00 0.00 86
20260507011043 45 0 0.0 0.0 0.00 0.00 0.00 85
20260507010543 45 0 0.0 0.0 0.00 0.00 0.00 85
20260507010042 44 0 0.0 0.0 0.00 0.00 0.00 85
20260507005042 44 0 0.0 0.0 0.00 0.00 0.00 84
20260507004542 45 0 0.0 0.0 0.00 0.00 0.00 84
20260507004041 45 0 0.0 0.0 0.00 0.00 0.00 84
20260507003541 45 0 0.0 0.0 0.00 0.00 0.00 84
20260507003041 45 0 0.0 0.0 0.00 0.00 0.00 84
20260507002541 45 159 0.9 2.6 0.00 0.00 0.00 83
20260507002040 45 124 0.0 2.6 0.00 0.00 0.00 83
20260507001540 45 0 0.0 0.0 0.00 0.00 0.00 83
20260507000539 45 166 0.9 3.5 0.00 0.00 0.00 83
20260507000039 45 132 0.9 5.2 0.00 0.00 0.00 83
20260506235539 45 146 0.9 4.3 0.00 0.00 0.00 82
20260506235039 45 148 1.7 4.3 0.00 0.00 0.00 82
20260506234538 45 138 0.0 1.7 0.00 0.00 0.00 82
20260506234038 46 141 0.9 4.3 0.00 0.00 0.00 81
20260506233538 46 138 0.9 3.5 0.00 0.00 0.00 81
20260506233037 46 127 0.9 4.3 0.00 0.00 0.00 81
20260506232537 46 132 0.9 5.2 0.00 0.00 0.00 80
20260506232037 46 135 0.9 3.5 0.00 0.00 0.00 80
20260506231537 46 138 0.9 3.5 0.00 0.00 0.00 79
20260506231036 46 127 0.9 5.2 0.00 0.00 0.00 79
20260506230536 46 156 0.9 4.3 0.00 0.00 0.00 79
20260506230035 47 160 1.7 3.5 0.00 0.00 0.00 79
20260506225534 46 153 1.7 5.2 0.00 0.00 0.00 79
20260506225034 47 103 0.0 2.6 0.00 0.00 0.00 78
20260506224534 46 121 0.9 5.2 0.00 0.00 0.00 78
20260506224033 46 135 1.7 5.2 0.00 0.00 0.00 77
20260506223533 47 129 1.7 6.1 0.00 0.00 0.00 77
20260506223032 48 113 2.6 5.2 0.00 0.00 0.00 76
20260506222532 48 142 0.9 3.5 0.00 0.00 0.00 75
20260506222031 48 131 0.0 3.5 0.00 0.00 0.00 74
20260506221529 48 131 1.7 5.2 0.00 0.00 0.00 73
20260506221029 48 121 2.6 6.1 0.00 0.00 0.00 74
20260506220529 48 139 1.7 5.2 0.00 0.00 0.00 72
20260506220028 49 104 1.7 6.1 0.00 0.00 0.00 70
20260506215528 48 141 0.9 5.2 0.00 0.00 0.00 70
20260506215028 48 114 1.7 6.1 0.00 0.00 0.00 69
20260506214527 49 107 0.9 3.5 0.00 0.00 0.00 68
20260506214027 49 138 0.9 5.2 0.00 0.00 0.00 67
20260506213527 49 136 0.9 4.3 0.00 0.00 0.00 67
20260506213027 50 159 0.0 2.6 0.00 0.00 0.00 66
20260506212526 50 156 0.9 3.5 0.00 0.00 0.00 65
20260506211526 50 152 2.6 5.2 0.00 0.00 0.00 64
20260506211025 50 134 0.9 4.3 0.00 0.00 0.00 63
20260506210525 50 146 1.7 4.3 0.00 0.00 0.00 63
20260506210025 50 125 1.7 5.2 0.00 0.00 0.00 62
20260506205525 50 167 1.7 5.2 0.00 0.00 0.00 62
20260506205024 51 158 2.6 5.2 0.00 0.00 0.00 61
20260506204524 51 181 2.6 5.2 0.00 0.00 0.00 60
20260506204024 51 148 2.6 6.1 0.00 0.00 0.00 60
20260506203522 51 159 1.7 5.2 0.00 0.00 0.00 59
20260506203022 52 146 1.7 4.3 0.00 0.00 0.00 58
20260506202521 52 148 2.6 4.3 0.00 0.00 0.00 57
20260506202021 52 122 2.6 6.1 0.00 0.00 0.00 56
20260506201020 53 104 0.9 3.5 0.00 0.00 0.00 53
20260506200520 53 120 1.7 5.2 0.00 0.00 0.00 53
20260506200020 53 146 2.6 5.2 0.00 0.00 0.00 52
20260506195519 53 134 1.7 5.2 0.00 0.00 0.00 50
20260506195019 53 152 1.7 3.5 0.00 0.00 0.00 49
20260506194519 54 49 0.9 5.2 0.00 0.00 0.00 48
20260506194018 54 107 1.7 3.5 0.00 0.00 0.00 48
20260506193518 54 100 0.9 2.6 0.00 0.00 0.00 47
20260506193018 54 125 0.9 2.6 0.00 0.00 0.00 47
20260506192518 54 127 0.0 2.6 0.00 0.00 0.00 46
20260506192017 54 96 0.9 3.5 0.00 0.00 0.00 46
20260506191517 55 68 1.7 5.2 0.00 0.00 0.00 46
20260506191017 54 132 0.9 2.6 0.00 0.00 0.00 46
20260506190516 55 97 1.7 4.3 0.00 0.00 0.00 45
20260506190016 55 110 2.6 5.2 0.00 0.00 0.00 45
20260506185516 55 75 1.7 6.1 0.00 0.00 0.00 45
20260506185016 55 111 1.7 6.1 0.00 0.00 0.00 45
20260506184515 55 105 1.7 6.1 0.00 0.00 0.00 44
20260506184015 55 97 2.6 6.1 0.00 0.00 0.00 44
20260506183515 56 105 2.6 7.0 0.00 0.00 0.00 44
20260506183014 55 114 1.7 5.2 0.00 0.00 0.00 45
20260506182514 55 79 1.7 6.1 0.00 0.00 0.00 45
20260506182014 56 103 0.9 6.1 0.00 0.00 0.00 45
20260506181013 56 155 1.7 6.1 0.00 0.00 0.00 44
20260506180513 56 120 0.9 5.2 0.00 0.00 0.00 45
20260506180013 56 150 0.9 5.2 0.00 0.00 0.00 44
20260506175513 56 93 2.6 6.1 0.00 0.00 0.00 43
20260506175012 56 51 2.6 6.1 0.00 0.00 0.00 44
20260506174512 56 90 1.7 6.1 0.00 0.00 0.00 44
20260506174012 56 76 3.5 7.0 0.00 0.00 0.00 43
20260506173011 56 160 2.6 7.0 0.00 0.00 0.00 41
20260506172511 56 91 2.6 7.0 0.00 0.00 0.00 40
20260506172010 56 98 2.6 7.0 0.00 0.00 0.00 40
20260506171510 56 79 2.6 6.1 0.00 0.00 0.00 40
20260506171010 56 75 2.6 7.8 0.00 0.00 0.00 40
20260506170510 57 97 3.5 7.8 0.00 0.00 0.00 39
20260506170009 57 120 3.5 7.0 0.00 0.00 0.00 39
20260506165509 58 70 4.3 8.7 0.00 0.00 0.00 39
20260506165009 58 0 0.0 0.0 0.00 0.00 0.00 34
20260506164509 58 18 0.9 4.3 0.00 0.00 0.00 34
20260506164008 58 42 1.7 5.2 0.00 0.00 0.00 35
20260506163508 59 83 0.9 2.6 0.00 0.00 0.00 35
20260506163008 59 80 1.7 7.8 0.00 0.00 0.00 35
20260506162507 59 60 1.7 6.1 0.00 0.00 0.00 34
20260506162007 59 79 1.7 5.2 0.00 0.00 0.00 33
20260506161507 59 111 3.5 7.8 0.00 0.00 0.00 34
20260506161007 58 83 2.6 7.0 0.00 0.00 0.00 34
20260506160506 58 84 3.5 7.8 0.00 0.00 0.00 35
20260506160006 60 101 4.3 9.6 0.00 0.00 0.00 34
20260506155506 60 45 2.6 9.6 0.00 0.00 0.00 33
20260506155006 59 79 1.7 4.3 0.00 0.00 0.00 34
20260506154505 58 91 1.7 5.2 0.00 0.00 0.00 35
20260506154005 58 113 2.6 7.8 0.00 0.00 0.00 36
20260506153505 58 117 2.6 6.1 0.00 0.00 0.00 36
20260506152504 58 84 5.2 10.4 0.00 0.00 0.00 37
20260506151503 58 72 3.5 7.0 0.00 0.00 0.00 36
20260506151003 58 101 1.7 7.8 0.00 0.00 0.00 36
20260506150503 59 94 2.6 7.0 0.00 0.00 0.00 36
20260506150003 59 121 2.6 10.4 0.00 0.00 0.00 35
20260506145002 59 87 3.5 7.8 0.00 0.00 0.00 34
20260506144502 60 121 2.6 6.1 0.00 0.00 0.00 35
20260506144002 60 31 2.6 8.7 0.00 0.00 0.00 34
20260506143501 60 105 2.6 6.1 0.00 0.00 0.00 34
20260506143001 60 105 3.5 10.4 0.00 0.00 0.00 34
20260506142501 61 113 3.5 9.6 0.00 0.00 0.00 32
20260506142000 60 10 3.5 11.3 0.00 0.00 0.00 32
20260506141500 60 10 3.5 10.4 0.00 0.00 0.00 35
20260506141000 59 37 1.7 7.8 0.00 0.00 0.00 36
20260506140500 59 97 3.5 10.4 0.00 0.00 0.00 38